Havre-Saint-Pierre, Quebec

9:58 AM EDT on August 18, 2017 (GMT -0400)
Havre-Saint-Pierre

Weather History for CYGV - September, 2013

Change the Weather History Date:

Wednesday, September 25, 2013

  Actual Average Record
Temperature  
Mean Temperature 52 °F -  
Max Temperature 57 °F 47 °F 64 °F (2002)
Min Temperature 46 °F 33 °F 26 °F (1997)
Degree Days  
Heating Degree Days 14    
Growing Degree Days 2 (Base 50)    
Moisture  
Dew Point 47 °F    
Average Humidity 86    
Maximum Humidity 94    
Minimum Humidity 72    
Precipitation  
Precipitation 0.00 in - - ()
Sea Level Pressure  
Sea Level Pressure 29.90 in    
Wind  
Wind Speed 10 mph ()    
Max Wind Speed 15 mph    
Max Gust Speed 24 mph    
Visibility 8.7 miles    
Events Rain    
Averages and records for this station are not official NWS values.
T = Trace of Precipitation, MM = Missing Value Source: Averaged Metar Reports

Daily Weather History Graph

Daily Weather History Graph

Search for Another Location

Airport or City:

Trip Planner

Search our weather history database for the weather conditions in past years. The results will help you decide how hot, cold, wet, or windy it might be!

Date:

Astronomy

Sep. 25, 2013 Rise Set
Actual Time 6:05 AM EDT 6:05 PM EDT
Civil Twilight 5:33 AM EDT 6:37 PM EDT
Nautical Twilight 4:55 AM EDT 7:15 PM EDT
Astronomical Twilight 4:15 AM EDT 7:54 PM EDT
Moon 9:36 PM EDT (9/25) 12:39 PM EDT (9/25)
Length of Visible Light 13h 04m
Length of Day
11h 59m
Waning Gibbous, 64% of the Moon is Illuminated
Sep 25
Waning Gibbous
Sep 26
Last Quarter
Oct 4
New
Oct 11
First Quarter
Oct 18
Full

Hourly Weather History & Observations

Time (EDT) Temp. Windchill Dew Point Humidity Pressure Visibility Wind Dir Wind Speed Gust Speed Precip Events Conditions
12:00 AM 48.2 °F - 44.6 °F 87% 29.86 in 9.0 mi NNE 10.4 mph - N/A   Overcast
12:28 AM 46.4 °F 42.4 °F 44.6 °F 93% 29.86 in 9.0 mi NNE 8.1 mph - N/A   Overcast
1:00 AM 46.4 °F 42.4 °F 44.6 °F 93% 29.86 in 9.0 mi NNE 8.1 mph - N/A   Overcast
2:00 AM 48.2 °F - 44.6 °F 87% 29.86 in 9.0 mi NNE 12.7 mph - N/A   Overcast
2:31 AM 48.2 °F - 44.6 °F 87% 29.86 in 9.0 mi NNE 10.4 mph - N/A   Overcast
3:00 AM 48.2 °F - 44.6 °F 87% 29.86 in 9.0 mi NNE 13.8 mph 19.6 mph N/A   Overcast
4:00 AM 48.2 °F - 44.6 °F 87% 29.86 in 9.0 mi NNE 11.5 mph - N/A   Overcast
4:32 AM 48.2 °F - 44.6 °F 87% 29.86 in 9.0 mi NNE 11.5 mph - N/A   Overcast
4:33 AM 48.2 °F - 44.6 °F 87% 29.86 in 9.0 mi NNE 11.5 mph - N/A   Overcast
4:46 AM 48.2 °F - 44.6 °F 87% 29.86 in 9.0 mi NNE 11.5 mph 17.3 mph N/A   Overcast
4:56 AM 48.2 °F - 44.6 °F 87% 29.86 in 9.0 mi NNE 9.2 mph - N/A   Overcast
5:00 AM 48.2 °F - 44.6 °F 87% 29.86 in 9.0 mi NNE 10.4 mph - N/A   Overcast
5:43 AM 48.2 °F - 44.6 °F 87% 29.87 in 9.0 mi NNE 10.4 mph - N/A   Overcast
5:46 AM 48.2 °F - 44.6 °F 87% 29.87 in 9.0 mi NNE 11.5 mph - N/A   Overcast
5:52 AM 48.2 °F - 44.6 °F 87% 29.87 in 7.0 mi NNE 11.5 mph - N/A Rain Light Rain
6:00 AM 48.2 °F - 44.6 °F 87% 29.87 in 9.0 mi NNE 10.4 mph - N/A Rain Light Rain
6:02 AM 48.2 °F - 44.6 °F 87% 29.87 in 9.0 mi NNE 10.4 mph - N/A Rain Light Rain
6:08 AM 48.2 °F - 44.6 °F 87% 29.88 in 9.0 mi NNE 10.4 mph - N/A   Overcast
7:00 AM 48.2 °F - 42.8 °F 82% 29.88 in 9.0 mi NNE 13.8 mph 19.6 mph N/A   Overcast
7:24 AM 48.2 °F - 44.6 °F 87% 29.88 in 9.0 mi NNE 11.5 mph 17.3 mph N/A   Overcast
8:00 AM 48.2 °F - 44.6 °F 87% 29.89 in 9.0 mi NE 12.7 mph 19.6 mph N/A   Overcast
8:01 AM 48.2 °F - 44.6 °F 87% 29.89 in 9.0 mi NNE 11.5 mph 19.6 mph N/A   Overcast
9:00 AM 50.0 °F - 44.6 °F 82% 29.89 in 9.0 mi NE 12.7 mph - N/A   Overcast
9:41 AM 51.8 °F - 44.6 °F 76% 29.88 in 9.0 mi NNE 15.0 mph 21.9 mph N/A   Overcast
9:47 AM 51.8 °F - 44.6 °F 76% 29.89 in 9.0 mi NNE 15.0 mph 20.7 mph N/A   Overcast
10:00 AM 51.8 °F - 46.4 °F 82% 29.89 in 9.0 mi NNE 11.5 mph 20.7 mph N/A   Overcast
11:00 AM 53.6 °F - 46.4 °F 77% 29.89 in 9.0 mi NE 15.0 mph 21.9 mph N/A   Overcast
12:00 PM 55.4 °F - 46.4 °F 72% 29.88 in 9.0 mi NNE 13.8 mph 23.0 mph N/A   Overcast
12:27 PM 55.4 °F - 46.4 °F 72% 29.89 in 9.0 mi NE 13.8 mph 24.2 mph N/A   Overcast
1:00 PM 55.4 °F - 46.4 °F 72% 29.88 in 9.0 mi NE 10.4 mph 20.7 mph N/A   Overcast
2:00 PM 57.2 °F - 48.2 °F 72% 29.89 in 9.0 mi NE 12.7 mph 19.6 mph N/A   Overcast
2:17 PM 55.4 °F - 48.2 °F 77% 29.89 in 9.0 mi NNE 13.8 mph 21.9 mph N/A Rain Light Rain
2:35 PM 55.4 °F - 50.0 °F 82% 29.90 in 9.0 mi NE 11.5 mph 21.9 mph N/A   Overcast
2:46 PM 55.4 °F - 50.0 °F 82% 29.90 in 9.0 mi NNE 12.7 mph 19.6 mph N/A Rain Light Rain
3:00 PM 53.6 °F - 50.0 °F 88% 29.90 in 9.0 mi NE 12.7 mph - N/A Rain Light Rain
3:06 PM 53.6 °F - 48.2 °F 82% 29.90 in 9.0 mi NNE 12.7 mph 18.4 mph N/A   Overcast
3:08 PM 53.6 °F - 50.0 °F 88% 29.90 in 9.0 mi NE 12.7 mph 18.4 mph N/A Rain Light Rain
3:23 PM 53.6 °F - 50.0 °F 88% 29.91 in 9.0 mi NE 12.7 mph 18.4 mph N/A   Overcast
4:00 PM 53.6 °F - 50.0 °F 88% 29.91 in 9.0 mi NNE 11.5 mph - N/A   Overcast
4:10 PM 53.6 °F - 50.0 °F 88% 29.92 in 6.0 mi NNE 10.4 mph - N/A Rain Light Rain
4:53 PM 51.8 °F - 50.0 °F 94% 29.94 in 5.0 mi NNE 9.2 mph - N/A Rain Rain
5:00 PM 51.8 °F - 50.0 °F 94% 29.94 in 4.0 mi NNE 10.4 mph - N/A Rain Rain
5:39 PM 51.8 °F - 50.0 °F 94% 29.95 in 6.0 mi NNE 10.4 mph - N/A Rain Light Rain
5:46 PM 51.8 °F - 50.0 °F 94% 29.95 in 9.0 mi NNE 9.2 mph - N/A   Overcast
6:00 PM 51.8 °F - 50.0 °F 94% 29.95 in 9.0 mi NNE 5.8 mph - N/A   Overcast
6:59 PM 51.8 °F - 50.0 °F 94% 29.96 in 9.0 mi NNE 5.8 mph - N/A   Overcast
7:00 PM 51.8 °F - 50.0 °F 94% 29.96 in 9.0 mi NNE 6.9 mph - N/A   Overcast
7:20 PM 51.8 °F - 48.2 °F 88% 29.97 in 9.0 mi NNE 10.4 mph - N/A   Overcast
7:51 PM 51.8 °F - 48.2 °F 88% 29.97 in 9.0 mi NNE 11.5 mph - N/A   Overcast
8:00 PM 51.8 °F - 48.2 °F 88% 29.97 in 9.0 mi NNE 10.4 mph 18.4 mph N/A   Overcast
8:16 PM 51.8 °F - 48.2 °F 88% 29.97 in 9.0 mi NNE 11.5 mph 18.4 mph N/A   Overcast
9:00 PM 50.0 °F - 48.2 °F 94% 29.97 in 9.0 mi NE 11.5 mph - N/A   Overcast
10:00 PM 50.0 °F - 48.2 °F 94% 29.98 in 9.0 mi NNE 6.9 mph - N/A   Overcast
11:00 PM 51.8 °F - 46.4 °F 82% 29.98 in 9.0 mi NNE 9.2 mph - N/A   Overcast